Find Kosmos-862

NORAD ID: 9495 Int'l Des: 1976-105 Owner: PVO Country: SU operational
MEOELLIPTICALHEO_ELLIPTICALSEMI_SYNC

Historical Position — 21. März 2026

3D-Globus wird geladen...

About Kosmos-862

Kosmos-862 (NORAD 9495) is a satellite by PVO of SU. It operates in MEO, ELLIPTICAL, HEO_ELLIPTICAL, SEMI_SYNC orbit Last tracked position: Mar 21, 2026.

Höhenverlauf

Loading altitude history...

Zweizeiliger Elementsatz

1 09495U 76105A 26080.28068858 .00000641 00000-0 00000-0 0 9998
2 09495 70.5006 42.1102 6268675 183.7336 167.5610 2.00630682239892
Epoch: 21. März 2026 • Age: 2764 hours

Aktueller Status

Position data unavailable
Typ other

Most Searched